When you browse on this site, cookies collect data to enhance your experience and personalize the content and advertising you see.
Visit our Privacy Policy to learn more. By continuing to use the site, you agree to this use of cookies and data.
  • In France
  • List of Countries
  • For 7 days
  • Water Temperature
  • Weather Map
  • Weather Widgets
  • user-avatar
    Login

    Hourly Weather Kabwe

    Today, 15 November, Friday

    Time Temperature Precipitation Wind Pressure Humidity
    00:00 +23°C° 0 mm 1 mps 659 mmHg 75%
    01:00 +23°C° 0 mm 1 mps 659 mmHg 76%
    02:00 +22°C° 0 mm 1 mps 659 mmHg 77%
    03:00 +22°C° 0 mm 1 mps 659 mmHg 78%
    04:00 +22°C° 0 mm 1 mps 658 mmHg 79%
    05:00 +22°C° 0 mm 1 mps 658 mmHg 80%
    06:00 +24°C° 0 mm 1 mps 659 mmHg 73%
    07:00 +26°C° 0 mm 1 mps 660 mmHg 65%
    08:00 +27°C° 0 mm 1 mps 661 mmHg 59%
    09:00 +29°C° 0 mm 1 mps 661 mmHg 55%
    10:00 +30°C° 0 mm 1 mps 661 mmHg 50%
    11:00 +30°C° 0 mm 0 mps 660 mmHg 45%
    12:00 +33°C° 0 mm 1 mps 660 mmHg 42%
    13:00 +33°C° 0 mm 1 mps 660 mmHg 38%
    14:00 +34°C° 0 mm 1 mps 659 mmHg 36%
    15:00 +33°C° 0 mm 1 mps 659 mmHg 38%
    16:00 +33°C° 0 mm 1 mps 658 mmHg 39%
    17:00 +32°C° 0 mm 1 mps 657 mmHg 40%
    18:00 +30°C° 0.2 mm 2 mps 658 mmHg 48%
    19:00 +28°C° 0.2 mm 2 mps 658 mmHg 55%
    20:00 +26°C° 0.2 mm 2 mps 659 mmHg 63%
    21:00 +25°C° 0.7 mm 2 mps 659 mmHg 67%
    22:00 +24°C° 0.7 mm 2 mps 659 mmHg 71%
    23:00 +24°C° 0.7 mm 1 mps 659 mmHg 75%

    Tomorrow, 16 November, Saturday

    Time Temperature Precipitation Wind Pressure Humidity
    00:00 +23°C° 1 mm 1 mps 658 mmHg 79%
    01:00 +22°C° 1 mm 1 mps 658 mmHg 83%
    02:00 +21°C° 1 mm 2 mps 658 mmHg 86%
    03:00 +21°C° 0.6 mm 2 mps 657 mmHg 87%
    04:00 +21°C° 0.6 mm 2 mps 657 mmHg 88%
    05:00 +21°C° 0.6 mm 2 mps 657 mmHg 89%
    06:00 +21°C° 0 mm 2 mps 658 mmHg 87%
    07:00 +23°C° 0 mm 1 mps 659 mmHg 84%
    08:00 +23°C° 0 mm 1 mps 659 mmHg 81%
    09:00 +25°C° 0.1 mm 1 mps 660 mmHg 73%
    10:00 +27°C° 0.1 mm 1 mps 660 mmHg 65%
    11:00 +27°C° 0.1 mm 0 mps 660 mmHg 56%
    12:00 +29°C° 0.1 mm 0 mps 660 mmHg 49%
    13:00 +33°C° 0.1 mm 1 mps 660 mmHg 42%
    14:00 +35°C° 0.1 mm 1 mps 660 mmHg 35%
    15:00 +31°C° 2.8 mm 2 mps 659 mmHg 50%
    16:00 +27°C° 2.8 mm 3 mps 657 mmHg 66%
    17:00 +24°C° 2.8 mm 3 mps 656 mmHg 82%
    18:00 +22°C° 1.3 mm 3 mps 657 mmHg 83%
    19:00 +22°C° 1.3 mm 3 mps 657 mmHg 85%
    20:00 +22°C° 1.3 mm 3 mps 658 mmHg 86%
    21:00 +21°C° 0.1 mm 2 mps 658 mmHg 86%
    22:00 +21°C° 0.1 mm 2 mps 658 mmHg 86%
    23:00 +21°C° 0.1 mm 1 mps 658 mmHg 86%

    Day after tomorrow, 17 November, Sunday

    Time Temperature Precipitation Wind Pressure Humidity
    00:00 +21°C° 0.1 mm 2 mps 657 mmHg 85%
    01:00 +21°C° 0.1 mm 2 mps 657 mmHg 84%
    02:00 +21°C° 0.1 mm 3 mps 657 mmHg 84%
    03:00 +21°C° 0 mm 3 mps 657 mmHg 84%
    04:00 +20°C° 0 mm 2 mps 657 mmHg 85%
    05:00 +20°C° 0 mm 2 mps 657 mmHg 85%
    06:00 +21°C° 0 mm 2 mps 657 mmHg 84%
    07:00 +22°C° 0 mm 1 mps 658 mmHg 82%
    08:00 +23°C° 0 mm 1 mps 659 mmHg 80%
    09:00 +24°C° 0 mm 1 mps 659 mmHg 76%
    10:00 +25°C° 0 mm 1 mps 659 mmHg 72%
    11:00 +26°C° 0 mm 1 mps 659 mmHg 68%
    12:00 +28°C° 0.1 mm 1 mps 659 mmHg 59%
    13:00 +30°C° 0.1 mm 1 mps 659 mmHg 50%
    14:00 +33°C° 0.1 mm 1 mps 659 mmHg 41%
    15:00 +32°C° 0 mm 1 mps 658 mmHg 41%
    16:00 +32°C° 0 mm 1 mps 658 mmHg 41%
    17:00 +31°C° 0 mm 1 mps 657 mmHg 41%
    18:00 +29°C° 0.2 mm 1 mps 657 mmHg 49%
    19:00 +27°C° 0.2 mm 1 mps 658 mmHg 57%
    20:00 +25°C° 0.2 mm 1 mps 658 mmHg 65%
    21:00 +25°C° 0.1 mm 1 mps 658 mmHg 68%
    22:00 +24°C° 0.1 mm 1 mps 658 mmHg 71%
    23:00 +24°C° 0.1 mm 1 mps 658 mmHg 74%

    18 November, Monday

    Time Temperature Precipitation Wind Pressure Humidity
    00:00 +23°C° 0 mm 1 mps 658 mmHg 74%
    01:00 +23°C° 0 mm 1 mps 658 mmHg 75%
    02:00 +23°C° 0 mm 1 mps 658 mmHg 76%
    03:00 +22°C° 0.1 mm 1 mps 658 mmHg 78%
    04:00 +22°C° 0.1 mm 1 mps 658 mmHg 80%
    05:00 +20°C° 0.1 mm 2 mps 658 mmHg 83%
    06:00 +23°C° 0.1 mm 2 mps 659 mmHg 79%
    07:00 +24°C° 0.1 mm 2 mps 659 mmHg 75%
    08:00 +25°C° 0.1 mm 1 mps 660 mmHg 71%
    09:00 +27°C° 1.3 mm 1 mps 660 mmHg 65%
    10:00 +29°C° 1.3 mm 1 mps 660 mmHg 58%
    11:00 +31°C° 1.3 mm 1 mps 661 mmHg 51%
    12:00 +31°C° 0.5 mm 1 mps 660 mmHg 50%
    13:00 +32°C° 0.5 mm 2 mps 659 mmHg 48%
    14:00 +32°C° 0.5 mm 2 mps 659 mmHg 46%
    15:00 +29°C° 1 mm 3 mps 658 mmHg 57%
    16:00 +27°C° 1 mm 3 mps 658 mmHg 68%
    17:00 +23°C° 1 mm 4 mps 657 mmHg 79%
    18:00 +24°C° 0.3 mm 3 mps 658 mmHg 81%
    19:00 +23°C° 0.3 mm 2 mps 658 mmHg 83%
    20:00 +23°C° 0.3 mm 1 mps 659 mmHg 85%
    21:00 +23°C° 0.1 mm 1 mps 659 mmHg 86%
    22:00 +23°C° 0.1 mm 1 mps 659 mmHg 87%
    23:00 +21°C° 0.1 mm 0 mps 660 mmHg 87%

    19 November, Tuesday

    Time Temperature Precipitation Wind Pressure Humidity
    00:00 +22°C° 0.4 mm 1 mps 660 mmHg 88%
    01:00 +22°C° 0.4 mm 1 mps 659 mmHg 88%
    02:00 +22°C° 0.4 mm 1 mps 659 mmHg 89%
    03:00 +22°C° 0.3 mm 1 mps 659 mmHg 89%
    04:00 +21°C° 0.3 mm 2 mps 659 mmHg 90%
    05:00 +20°C° 0.3 mm 2 mps 659 mmHg 91%
    06:00 +21°C° 0 mm 2 mps 660 mmHg 86%
    07:00 +23°C° 0 mm 1 mps 661 mmHg 82%
    08:00 +24°C° 0 mm 1 mps 661 mmHg 77%
    09:00 +27°C° 0.2 mm 1 mps 661 mmHg 66%
    10:00 +30°C° 0.2 mm 1 mps 662 mmHg 55%
    11:00 +32°C° 0.2 mm 1 mps 662 mmHg 43%
    12:00 +32°C° 0 mm 1 mps 661 mmHg 43%
    13:00 +32°C° 0 mm 2 mps 660 mmHg 42%
    14:00 +32°C° 0 mm 2 mps 659 mmHg 42%
    15:00 +30°C° 0.5 mm 2 mps 659 mmHg 51%
    16:00 +28°C° 0.5 mm 2 mps 658 mmHg 60%
    17:00 +26°C° 0.5 mm 3 mps 657 mmHg 69%
    18:00 +25°C° 0.7 mm 2 mps 658 mmHg 72%
    19:00 +24°C° 0.7 mm 2 mps 658 mmHg 76%
    20:00 +23°C° 0.7 mm 1 mps 659 mmHg 79%
    21:00 +23°C° 0.2 mm 1 mps 659 mmHg 79%
    22:00 +23°C° 0.2 mm 2 mps 659 mmHg 79%
    23:00 +21°C° 0.2 mm 2 mps 660 mmHg 80%

    20 November, Wednesday

    Time Temperature Precipitation Wind Pressure Humidity
    00:00 +21°C° 0.4 mm 2 mps 659 mmHg 84%
    01:00 +20°C° 0.4 mm 2 mps 659 mmHg 88%
    02:00 +20°C° 0.4 mm 2 mps 659 mmHg 92%
    03:00 +21°C° 0 mm 1 mps 659 mmHg 93%
    04:00 +21°C° 0 mm 1 mps 659 mmHg 94%
    05:00 +19°C° 0 mm 0 mps 659 mmHg 95%
    06:00 +20°C° 0 mm 0 mps 660 mmHg 87%
    07:00 +22°C° 0 mm 0 mps 661 mmHg 80%
    08:00 +24°C° 0 mm 0 mps 662 mmHg 72%
    09:00 +26°C° 1.3 mm 0 mps 662 mmHg 64%
    10:00 +28°C° 1.3 mm 0 mps 662 mmHg 57%
    11:00 +30°C° 1.3 mm 0 mps 662 mmHg 49%
    12:00 +31°C° 0 mm 0 mps 661 mmHg 45%
    13:00 +33°C° 0 mm 1 mps 661 mmHg 42%
    14:00 +34°C° 0 mm 1 mps 660 mmHg 38%
    15:00 +33°C° 0 mm 1 mps 659 mmHg 40%
    16:00 +32°C° 0 mm 1 mps 659 mmHg 42%
    17:00 +31°C° 0 mm 1 mps 658 mmHg 43%
    18:00 +30°C° 0 mm 1 mps 658 mmHg 48%
    19:00 +26°C° 0 mm 0 mps 658 mmHg 52%
    20:00 +25°C° 0 mm 0 mps 658 mmHg 57%
    21:00 +26°C° 0.5 mm 1 mps 659 mmHg 63%
    22:00 +25°C° 0.5 mm 1 mps 659 mmHg 69%
    23:00 +24°C° 0.5 mm 1 mps 660 mmHg 75%
    Show more